Vertical_Velocity
1 3 4 4 3 1 -1 -2 -2 -2 -1 -0 1 1 2 2 2 2 3 4 5 4 3 1 -1 -3 -3 -1 -0 -0 -1 -1 -2 -3 -4 -5 -5 -4 -3 -1 -0 1 2 4 4 2 1 1 2 1 1 0 1 1 2 2 2 2 2 1 1 2 2 2 2 2 1 1 1
1 3 4 3 2 0 -1 -2 -2 -1 -0 0 1 1 2 2 2 3 4 5 4 3 1 -1 -3 -3 -2 -0 0 -0 -0 -0 -2 -3 -4 -5 -4 -3 -1 -0 0 1 2 4 3 2 1 1 2 1 1 1 1 1 2 2 2 2 2 1 1 2 2 2 2 2 2 2 2
2 3 3 2 0 -1 -1 -1 -1 -0 0 1 1 2 3 2 2 3 3 3 2 1 -1 -2 -3 -2 -0 1 1 0 0 -0 -2 -3 -5 -5 -3 -2 -0 1 1 1 2 3 3 2 1 1 2 1 1 1 1 2 2 2 2 2 1 1 2 2 2 2 2 2 2 2 2
3 2 1 -1 -1 -1 -1 -0 0 0 0 0 1 2 2 2 2 2 2 1 0 -1 -2 -2 -1 -0 1 1 1 0 -0 -1 -3 -4 -5 -5 -2 -1 1 1 1 1 1 3 3 2 1 2 2 2 2 2 2 2 2 2 2 2 1 1 2 2 2 2 2 3 3 2 1
1 -0 -1 -2 -1 -0 0 1 1 1 0 0 1 1 1 0 1 1 1 -0 -1 -1 -1 -1 0 1 1 0 0 -0 -1 -2 -3 -5 -5 -3 -2 -0 1 2 2 2 2 3 3 2 2 2 2 2 2 2 2 2 2 2 2 2 2 2 2 2 2 2 3 3 2 1 1
-0 -1 -1 -1 -0 1 2 2 1 -0 -1 -0 0 0 -0 0 1 1 0 -1 -1 -1 0 1 1 1 1 0 -0 -1 -1 -2 -4 -4 -3 -2 -1 0 0 1 0 1 3 4 3 3 2 2 2 2 2 2 2 2 2 2 2 2 2 2 2 2 2 3 2 2 2 1 0
-0 -0 0 0 1 1 2 1 -0 -1 -1 -0 -0 -0 -0 0 0 -0 -1 -1 -0 1 1 1 1 1 0 -0 -1 -1 -1 -2 -3 -3 -2 -0 1 1 1 -0 1 3 4 5 4 3 2 2 2 2 2 2 2 2 1 1 1 1 1 1 1 2 3 3 2 2 1 0 -0
1 1 0 0 0 0 0 -1 -1 -1 -0 0 -1 -1 -1 -0 -1 -1 -1 -0 1 1 1 1 0 0 -0 -1 -1 -1 -1 -1 -1 -1 0 1 1 2 2 3 5 6 6 5 4 3 2 2 2 2 2 2 1 1 0 0 0 1 1 1 2 2 3 2 2 1 0 -1 -1
3 1 -1 -1 -1 -1 -2 -2 -1 -1 -0 -0 -1 -1 -2 -2 -2 -1 -0 1 0 0 1 1 0 -0 -1 -1 -1 -1 -0 -0 -0 1 2 2 1 3 6 9 10 9 7 5 3 2 1 1 1 1 1 1 0 0 -0 0 0 1 1 2 2 3 2 2 1 0 -0 -1 -1
2 0 -1 -2 -3 -3 -3 -2 -1 -1 -1 -1 -2 -2 -2 -2 -1 -0 0 0 0 1 1 1 0 -0 -1 -1 -1 -0 -0 0 1 2 2 2 3 7 11 12 10 7 5 4 2 1 0 -0 -0 -0 0 0 -0 -0 0 0 1 1 2 2 2 2 2 1 0 -0 -1 -1 -0
1 -0 -1 -2 -3 -3 -3 -2 -2 -2 -2 -2 -2 -2 -1 -1 0 0 -0 0 1 2 2 1 0 -0 -1 -2 -1 -0 0 1 2 2 1 2 6 10 13 11 7 5 3 2 1 -0 -1 -1 -1 -0 0 0 0 0 1 1 1 2 2 2 2 2 1 0 -0 -1 -1 -0 1
3 1 -1 -2 -2 -2 -2 -2 -2 -2 -3 -3 -2 -1 -1 0 0 -0 0 1 2 2 2 1 0 -0 -1 -2 -1 0 1 2 2 1 0 0 5 9 12 9 6 4 2 1 -0 -1 -2 -1 -0 0 1 1 1 1 1 2 2 2 2 2 2 1 0 -0 -1 -0 0 1 2
6 4 0 -2 -2 -2 -2 -3 -3 -3 -2 -2 -1 -1 0 0 -0 -0 1 1 2 2 2 0 -1 -2 -2 -2 -0 1 2 3 1 -0 -1 -1 1 6 9 8 5 3 1 -0 -1 -2 -1 -1 1 2 2 2 2 2 2 2 2 2 2 2 1 0 -0 -0 -0 0 1 2 2
6 5 1 -2 -2 -3 -3 -3 -3 -2 -1 -1 -0 -0 0 -0 -0 0 1 1 1 1 1 -0 -3 -3 -3 -1 0 1 2 1 -0 -2 -2 -2 -1 2 5 6 4 2 1 -1 -2 -1 -0 1 2 2 2 2 2 2 2 2 2 2 2 1 0 0 0 0 1 1 2 2 1
4 3 0 -1 -2 -2 -3 -3 -2 -1 -0 -0 0 0 -0 -0 -0 0 1 0 0 0 -0 -2 -3 -2 -1 0 1 1 0 -1 -1 -2 -2 -2 -1 1 3 5 3 2 0 -1 -1 -0 1 2 2 3 3 3 2 2 2 2 2 1 1 0 0 0 1 1 1 2 2 1 1
4 2 0 0 -1 -1 -1 -1 -0 0 1 0 0 0 0 0 0 1 1 0 0 -0 -1 -2 -2 -1 0 1 1 0 -0 -1 -1 -1 -1 -1 -0 2 3 4 3 1 0 0 0 1 2 2 3 3 3 2 2 2 2 1 1 1 0 0 1 1 1 1 1 1 1 1 1
9 7 5 5 2 2 2 1 2 2 1 1 1 1 1 1 1 1 1 0 -1 -2 -2 -2 -1 0 1 1 0 -0 -0 0 1 1 0 0 2 3 3 3 2 1 0 0 1 2 2 3 3 3 2 2 2 1 1 1 0 0 0 1 1 2 1 1 1 1 1 1 1
14 13 9 7 5 4 3 1 2 2 1 1 1 1 1 1 1 1 1 -1 -2 -2 -1 0 1 1 1 -0 -1 -1 1 3 3 2 2 2 3 3 3 2 1 0 0 0 1 2 2 3 2 2 2 1 1 1 0 0 0 0 1 2 2 1 1 1 1 1 1 1 1
10 11 9 5 3 2 1 1 1 1 1 1 1 1 1 1 1 0 -1 -2 -2 -2 -0 2 2 1 -0 -2 -1 1 4 5 4 3 3 3 3 3 2 1 0 0 0 1 1 2 2 2 2 1 1 0 -0 -0 -0 0 0 1 1 2 1 1 1 1 1 1 1 1 1
3 4 4 4 1 -0 -0 1 0 0 0 0 0 1 1 1 0 -1 -2 -2 -2 -1 1 2 1 -0 -2 -2 0 3 6 5 4 4 3 3 3 2 1 0 0 0 0 1 1 2 2 2 1 0 -0 -1 -1 -0 0 1 1 1 1 1 1 1 1 1 1 1 1 1 1
1 1 1 1 0 -0 -0 -0 -0 -0 -0 0 0 0 0 -0 -1 -2 -2 -2 -1 0 1 1 -0 -1 -1 1 3 5 5 4 3 3 3 3 2 1 1 0 0 0 1 1 1 1 1 1 -0 -1 -1 -1 -0 0 1 1 1 1 1 1 1 1 1 1 1 1 1 1 1
1 1 0 0 0 0 -0 -0 0 0 0 0 0 -0 -1 -2 -2 -2 -2 -0 1 1 1 1 -1 0 2 5 6 5 4 3 3 3 2 2 2 1 1 0 0 1 1 1 1 1 0 -0 -1 -1 -1 0 1 1 2 2 2 2 1 1 1 1 1 1 1 1 1 0 0
1 1 0 -0 -0 -0 -0 0 1 1 1 1 1 -0 -1 -2 -2 -2 -0 2 3 3 2 1 2 4 6 8 7 6 5 4 4 3 3 2 1 1 1 1 1 1 1 1 0 0 0 -0 -0 0 0 1 1 2 2 2 2 2 2 2 1 1 1 1 1 1 0 -0 -0
-0 -0 -0 -0 0 0 1 2 2 2 2 2 0 -1 -1 -0 2 2 3 4 4 3 3 4 7 8 9 8 7 7 6 5 4 3 3 2 1 1 1 1 1 1 1 1 1 0 0 0 0 1 1 2 2 2 2 2 2 1 1 1 1 1 1 1 1 0 -0 -0 -0
-1 -1 -0 0 1 1 2 2 2 2 2 1 -1 0 4 8 9 6 3 3 3 4 6 10 10 10 9 8 7 7 6 5 3 2 1 1 0 0 1 1 1 1 1 1 1 1 1 1 1 1 2 2 2 2 2 2 1 1 1 1 1 1 1 0 -0 -0 -0 0 1
-0 0 1 1 2 2 1 1 0 0 0 -0 -1 7 16 19 10 4 1 2 5 8 11 11 10 8 7 7 6 5 4 3 2 1 0 -0 0 1 1 1 1 1 1 1 1 1 1 1 1 2 2 2 2 2 1 1 2 2 1 1 1 1 0 -0 -0 -0 0 1 1
2 3 3 3 3 1 0 1 -0 0 1 1 0 9 17 15 4 0 2 6 10 11 11 9 7 7 6 5 4 3 2 2 1 0 0 0 0 1 1 1 1 1 1 1 1 1 1 1 1 1 1 1 1 1 1 2 2 1 1 1 0 -0 -0 -0 0 0 1 1 1
4 4 4 4 3 1 0 1 0 1 2 2 0 1 2 1 -1 1 5 9 10 9 8 7 6 5 4 4 3 2 1 1 0 0 0 0 1 1 1 1 1 1 1 1 1 1 1 1 1 1 1 1 1 2 2 2 1 1 0 -0 -0 -0 0 0 1 1 1 1 1
4 4 4 3 2 -0 -1 -0 -0 0 1 1 -1 -2 -3 -3 -1 3 6 8 7 7 7 5 4 4 3 3 2 1 0 0 0 0 0 0 0 1 1 1 1 1 1 1 1 1 1 1 1 1 2 2 2 1 1 1 0 0 -0 -0 0 0 1 1 1 1 1 0 0
2 1 1 -0 -2 -3 -3 1 3 2 0 -1 -2 -2 -1 -1 0 3 5 5 6 5 5 3 3 3 3 2 1 1 1 1 0 -0 -0 -1 -1 -0 1 1 1 1 1 1 2 2 2 2 2 2 2 2 1 1 0 -0 -0 -0 0 0 1 1 1 1 1 0 0 0 0
-0 -1 -2 -4 -5 -4 -0 7 9 5 -0 -2 -2 -1 -1 0 1 2 4 4 4 4 4 4 3 2 2 1 2 1 1 1 0 -0 -0 -0 -0 -0 0 1 1 1 1 2 2 2 2 2 2 2 2 1 1 0 0 -0 0 0 1 1 1 1 0 0 0 0 0 0 0
-2 -2 -3 -5 -4 -0 6 12 10 5 0 -0 1 2 2 1 2 2 2 3 4 4 5 5 4 3 2 2 2 1 1 1 0 -0 -0 -0 0 1 1 1 1 1 2 2 2 2 2 2 1 1 0 0 0 0 0 1 1 1 1 1 0 0 0 0 0 0 1 1 1
-1 -1 -1 -1 2 7 10 10 8 5 2 2 4 5 4 2 1 1 2 2 3 3 3 3 3 2 2 1 1 1 1 0 -0 -0 -0 1 1 1 2 2 2 2 2 2 1 1 1 1 1 0 0 0 0 1 1 1 1 1 0 0 0 0 0 0 0 1 1 1 1
0 1 4 7 10 10 8 5 5 4 3 3 5 5 3 0 0 0 1 1 2 2 2 2 2 2 1 0 -0 -1 -1 -1 -1 -0 0 1 1 2 2 2 2 2 2 1 1 1 1 0 0 0 1 1 1 1 1 1 1 0 0 0 0 0 1 1 1 1 1 1 1
3 6 9 11 10 7 3 1 2 3 3 3 4 4 3 1 0 0 0 0 1 1 2 1 1 1 1 0 -0 -1 -1 -1 -1 0 1 1 2 2 2 2 2 1 1 1 1 1 1 1 1 1 1 1 1 1 1 1 1 1 1 1 1 1 1 1 1 1 1 1 0
5 6 7 7 5 3 1 -0 1 2 2 3 4 4 4 4 3 3 2 2 2 2 2 1 1 1 0 -0 -0 -1 -1 -1 0 1 2 2 2 2 2 1 1 1 1 1 1 1 1 1 2 2 2 2 1 1 1 1 1 1 1 1 1 1 1 1 0 0 0 0 0
4 3 3 2 2 0 -0 -1 0 1 3 4 5 6 7 7 6 5 4 4 3 2 1 0 -0 -1 -1 -1 -1 -0 0 0 1 2 2 2 2 1 1 1 0 1 1 1 1 2 2 2 2 2 2 1 1 1 1 1 1 1 1 1 1 1 0 0 0 0 0 0 -0
6 4 3 3 2 2 1 1 2 3 4 5 6 6 6 6 5 4 4 3 2 2 1 -0 -1 -1 -1 -1 -0 0 1 1 1 1 1 1 1 1 0 1 1 1 1 2 2 2 2 2 2 2 1 1 1 1 1 1 1 1 1 0 0 0 0 0 0 0 -0 -0 -0
10 9 9 7 6 5 4 4 4 5 5 5 5 5 5 4 3 3 2 2 2 1 1 0 -0 -0 0 1 1 1 1 1 1 1 1 1 1 1 1 1 2 2 2 2 2 2 2 2 1 1 1 1 1 1 1 0 0 0 0 0 0 0 0 0 -0 -0 -0 -1 -0
9 10 10 10 8 7 6 5 5 5 5 4 3 3 3 2 2 1 1 1 1 1 1 1 1 1 1 1 1 1 1 1 1 1 1 1 1 1 2 2 2 2 2 1 1 1 1 1 1 1 1 1 1 0 0 0 0 0 0 0 0 0 -0 -0 -0 -0 -0 -1 -1
4 5 6 7 6 5 5 4 4 4 3 2 2 2 1 1 1 1 1 2 2 1 1 1 2 2 1 1 1 1 1 1 1 1 1 1 1 2 2 2 2 1 1 1 1 1 1 1 1 1 1 1 0 0 0 0 0 0 0 0 0 -0 -0 -0 -0 -0 -0 -0 -0
Height
5580 5584 5589 5594 5598 5602 5606 5611 5615 5619 5623 5627 5631 5635 5639 5643 5647 5650 5653 5656 5659 5661 5664 5666 5668 5669 5671 5674 5675 5678 5680 5682 5684 5685 5687 5689 5690 5691 5693 5694 5696 5699 5701 5703 5705 5708 5710 5712 5714 5716 5718 5719 5721 5722 5724 5725 5726 5727 5729 5730 5732 5733 5734 5735 5737 5738 5739 5739 5740
5577 5582 5586 5591 5595 5599 5604 5608 5612 5616 5620 5624 5629 5633 5637 5641 5645 5648 5651 5654 5657 5659 5662 5664 5666 5668 5670 5672 5674 5677 5679 5681 5682 5684 5686 5688 5689 5690 5691 5693 5695 5697 5699 5701 5704 5706 5709 5711 5713 5715 5717 5718 5719 5720 5722 5723 5724 5726 5727 5729 5730 5731 5733 5734 5735 5736 5737 5738 5738
5575 5579 5584 5589 5593 5598 5602 5606 5610 5614 5619 5623 5627 5631 5635 5639 5643 5646 5649 5652 5655 5657 5660 5662 5664 5666 5669 5671 5673 5675 5677 5679 5681 5683 5684 5686 5687 5688 5690 5692 5694 5696 5698 5700 5702 5705 5708 5710 5712 5714 5715 5717 5718 5719 5720 5722 5723 5724 5726 5727 5729 5730 5731 5732 5733 5734 5735 5736 5736
5573 5577 5582 5586 5591 5596 5600 5605 5609 5613 5617 5621 5625 5629 5634 5637 5641 5644 5648 5650 5653 5656 5658 5660 5663 5665 5668 5670 5672 5674 5676 5678 5679 5681 5683 5684 5685 5687 5689 5691 5693 5695 5697 5699 5701 5704 5706 5709 5711 5713 5714 5715 5716 5718 5719 5720 5722 5723 5724 5726 5727 5728 5729 5730 5732 5733 5734 5734 5734
5571 5575 5580 5585 5589 5594 5599 5603 5607 5611 5615 5619 5624 5628 5632 5636 5639 5643 5646 5649 5652 5654 5657 5659 5662 5664 5667 5669 5671 5673 5675 5676 5678 5680 5682 5683 5684 5686 5688 5690 5692 5694 5696 5698 5700 5703 5705 5708 5709 5711 5712 5714 5715 5716 5718 5719 5720 5721 5723 5724 5725 5726 5728 5729 5730 5731 5732 5732 5733
5569 5574 5579 5584 5588 5593 5597 5602 5606 5610 5614 5618 5623 5627 5631 5635 5638 5641 5644 5647 5650 5653 5656 5659 5661 5663 5665 5668 5670 5672 5674 5675 5677 5679 5680 5681 5683 5684 5687 5689 5691 5693 5694 5697 5699 5701 5704 5706 5708 5709 5711 5712 5714 5715 5716 5717 5719 5720 5721 5723 5724 5725 5726 5727 5728 5729 5729 5730 5730
5569 5573 5578 5583 5587 5592 5596 5600 5604 5609 5613 5617 5622 5626 5630 5634 5637 5640 5643 5646 5649 5652 5655 5657 5660 5662 5664 5666 5669 5670 5672 5674 5676 5677 5679 5680 5682 5684 5686 5688 5689 5691 5694 5695 5698 5700 5703 5705 5706 5708 5709 5711 5712 5713 5714 5716 5717 5718 5719 5721 5722 5723 5724 5726 5726 5727 5728 5728 5729
5568 5572 5577 5581 5586 5590 5595 5599 5604 5608 5612 5617 5621 5625 5629 5633 5636 5639 5642 5645 5648 5651 5654 5656 5659 5661 5663 5665 5668 5669 5671 5673 5674 5676 5678 5679 5682 5684 5685 5686 5688 5690 5692 5694 5697 5699 5701 5703 5705 5706 5708 5709 5710 5711 5713 5714 5715 5717 5718 5719 5721 5722 5723 5724 5724 5725 5725 5726 5726
5568 5572 5576 5581 5585 5590 5594 5599 5603 5608 5612 5616 5620 5624 5628 5631 5634 5638 5641 5644 5647 5650 5653 5656 5658 5660 5662 5664 5667 5669 5670 5672 5673 5675 5677 5679 5680 5682 5684 5685 5687 5689 5691 5693 5695 5697 5699 5701 5703 5705 5706 5707 5709 5710 5711 5712 5714 5715 5716 5718 5719 5720 5721 5722 5723 5723 5724 5724 5724
5568 5572 5577 5581 5585 5590 5594 5599 5603 5608 5612 5616 5620 5624 5627 5630 5634 5637 5640 5644 5647 5649 5652 5655 5657 5659 5661 5664 5666 5667 5669 5671 5672 5674 5676 5677 5679 5681 5683 5684 5686 5688 5690 5692 5694 5696 5698 5700 5702 5703 5704 5706 5707 5708 5709 5711 5712 5714 5715 5716 5718 5719 5719 5720 5721 5721 5722 5722 5723
5569 5574 5578 5582 5586 5590 5595 5599 5604 5608 5612 5616 5619 5623 5626 5630 5633 5637 5640 5643 5646 5649 5652 5654 5656 5658 5661 5663 5664 5666 5668 5670 5672 5673 5674 5676 5677 5679 5682 5684 5685 5687 5689 5690 5692 5694 5696 5698 5700 5702 5703 5704 5706 5707 5708 5709 5711 5712 5714 5715 5716 5717 5718 5718 5719 5719 5720 5720 5721
5571 5575 5579 5582 5587 5591 5596 5600 5604 5608 5612 5616 5619 5623 5626 5629 5633 5636 5639 5643 5646 5649 5651 5654 5656 5658 5660 5661 5663 5665 5667 5669 5670 5672 5673 5675 5676 5679 5681 5683 5684 5686 5688 5689 5691 5693 5695 5697 5699 5701 5702 5703 5704 5706 5707 5709 5710 5711 5712 5714 5714 5715 5716 5716 5717 5717 5718 5719 5719
5571 5575 5579 5583 5588 5592 5596 5601 5605 5609 5613 5616 5619 5623 5626 5629 5633 5636 5639 5642 5645 5648 5651 5653 5655 5657 5659 5661 5663 5665 5666 5668 5669 5670 5672 5674 5675 5678 5680 5682 5683 5685 5687 5688 5690 5692 5694 5696 5698 5700 5701 5702 5704 5705 5706 5707 5709 5710 5711 5712 5713 5714 5714 5715 5715 5716 5716 5717 5718
5572 5576 5580 5584 5589 5593 5598 5602 5606 5609 5613 5616 5619 5623 5626 5629 5633 5636 5639 5642 5644 5647 5650 5652 5654 5656 5658 5660 5662 5664 5665 5666 5667 5669 5671 5673 5674 5677 5679 5681 5682 5684 5686 5688 5689 5692 5694 5695 5697 5699 5700 5701 5703 5704 5705 5706 5707 5709 5709 5710 5711 5712 5713 5713 5714 5714 5715 5716 5716
5574 5578 5581 5586 5590 5594 5599 5603 5607 5610 5614 5617 5620 5623 5626 5629 5632 5635 5639 5641 5644 5647 5649 5651 5653 5655 5658 5659 5661 5662 5664 5664 5666 5668 5670 5672 5674 5676 5678 5680 5681 5683 5685 5687 5689 5691 5693 5695 5696 5698 5699 5700 5702 5703 5704 5705 5706 5707 5708 5709 5709 5710 5711 5712 5712 5713 5714 5714 5715
5576 5580 5584 5588 5592 5596 5601 5604 5608 5611 5614 5617 5620 5623 5626 5629 5632 5635 5638 5641 5644 5647 5649 5651 5653 5655 5657 5659 5660 5661 5662 5664 5665 5667 5669 5671 5673 5675 5677 5679 5681 5682 5684 5686 5688 5690 5692 5694 5695 5697 5698 5699 5700 5701 5703 5704 5705 5706 5706 5707 5708 5709 5710 5710 5711 5711 5712 5713 5713
5580 5584 5587 5590 5595 5599 5603 5605 5608 5611 5614 5617 5620 5624 5627 5629 5633 5635 5638 5641 5644 5647 5649 5651 5653 5655 5656 5658 5659 5660 5662 5664 5665 5667 5669 5671 5673 5675 5677 5678 5680 5682 5684 5686 5688 5690 5692 5693 5694 5695 5697 5698 5699 5700 5701 5702 5703 5704 5705 5706 5707 5708 5708 5709 5709 5710 5710 5711 5711
5582 5588 5591 5594 5597 5600 5603 5605 5609 5612 5615 5618 5621 5624 5627 5630 5633 5636 5639 5641 5644 5647 5649 5651 5653 5654 5655 5657 5658 5659 5661 5664 5666 5667 5669 5671 5673 5674 5676 5678 5679 5681 5683 5685 5687 5689 5691 5692 5693 5694 5695 5697 5698 5699 5700 5701 5702 5703 5704 5704 5705 5706 5707 5707 5708 5708 5709 5709 5710
5581 5588 5592 5595 5597 5600 5603 5606 5609 5613 5616 5619 5622 5625 5628 5631 5634 5636 5639 5642 5644 5647 5649 5650 5652 5653 5654 5656 5658 5659 5662 5664 5665 5667 5669 5671 5672 5674 5675 5677 5679 5681 5683 5685 5687 5688 5690 5691 5692 5693 5694 5695 5696 5697 5699 5699 5701 5702 5702 5703 5704 5704 5705 5706 5706 5707 5708 5708 5709
5583 5587 5591 5594 5598 5601 5604 5608 5611 5614 5617 5620 5623 5626 5629 5631 5634 5636 5639 5643 5645 5647 5648 5649 5651 5653 5654 5655 5657 5659 5661 5663 5665 5667 5669 5670 5672 5673 5675 5677 5679 5681 5683 5684 5686 5687 5689 5690 5691 5692 5693 5694 5695 5696 5697 5699 5699 5700 5701 5702 5703 5703 5704 5704 5705 5706 5706 5707 5707
5586 5589 5592 5595 5599 5603 5606 5609 5612 5615 5618 5621 5624 5626 5629 5632 5635 5638 5641 5643 5645 5646 5647 5649 5650 5652 5654 5655 5658 5659 5661 5663 5665 5667 5669 5670 5671 5673 5674 5676 5679 5680 5682 5684 5685 5686 5687 5689 5689 5691 5692 5693 5694 5695 5696 5697 5698 5699 5700 5701 5701 5702 5703 5703 5704 5704 5705 5705 5705
5589 5592 5595 5598 5601 5604 5608 5610 5613 5616 5619 5622 5624 5627 5630 5633 5637 5639 5641 5643 5644 5645 5647 5649 5650 5652 5653 5655 5658 5659 5661 5663 5665 5666 5668 5669 5671 5673 5674 5676 5678 5680 5681 5683 5684 5685 5686 5688 5689 5690 5691 5692 5693 5694 5695 5696 5697 5698 5699 5699 5700 5701 5701 5702 5703 5703 5704 5704 5704
5592 5594 5597 5600 5604 5606 5609 5612 5615 5618 5620 5623 5625 5629 5632 5635 5638 5639 5640 5641 5643 5644 5646 5648 5650 5651 5654 5655 5657 5659 5661 5663 5664 5666 5667 5669 5671 5672 5674 5676 5677 5679 5680 5682 5683 5684 5686 5687 5688 5689 5690 5691 5692 5693 5694 5695 5696 5697 5698 5699 5699 5700 5700 5701 5701 5702 5702 5702 5703
5595 5598 5600 5603 5606 5609 5611 5614 5616 5619 5621 5624 5627 5631 5634 5636 5638 5639 5639 5640 5642 5644 5646 5648 5650 5652 5654 5655 5657 5659 5660 5662 5664 5665 5667 5669 5670 5672 5674 5675 5677 5679 5680 5681 5683 5684 5685 5686 5687 5688 5689 5690 5691 5693 5694 5694 5695 5696 5697 5697 5698 5699 5699 5699 5700 5700 5700 5701 5701
5598 5601 5604 5606 5609 5611 5613 5615 5618 5620 5623 5626 5629 5633 5635 5636 5637 5638 5639 5641 5643 5644 5646 5648 5650 5652 5654 5655 5657 5659 5660 5662 5664 5665 5667 5669 5670 5672 5673 5675 5676 5678 5679 5681 5682 5683 5684 5685 5686 5687 5689 5689 5691 5692 5693 5693 5694 5695 5696 5696 5697 5698 5698 5698 5699 5699 5699 5699 5700
5602 5604 5606 5608 5610 5612 5614 5617 5620 5622 5624 5627 5631 5634 5635 5637 5638 5639 5640 5642 5644 5646 5648 5649 5650 5651 5653 5655 5657 5658 5660 5662 5663 5665 5667 5668 5670 5671 5673 5674 5676 5678 5679 5680 5681 5683 5684 5684 5686 5687 5688 5689 5690 5691 5692 5692 5693 5694 5694 5695 5696 5696 5697 5697 5697 5698 5698 5699 5699
5604 5607 5609 5610 5612 5614 5617 5621 5623 5624 5626 5628 5630 5633 5636 5637 5638 5639 5641 5643 5644 5646 5647 5648 5649 5651 5653 5654 5656 5658 5660 5661 5663 5665 5667 5669 5670 5672 5673 5674 5676 5677 5679 5680 5681 5682 5683 5684 5685 5686 5687 5688 5689 5690 5691 5691 5692 5693 5694 5694 5694 5695 5695 5696 5696 5697 5697 5698 5698
5607 5609 5611 5613 5614 5616 5619 5624 5626 5627 5628 5629 5630 5633 5635 5637 5638 5639 5641 5642 5644 5645 5646 5648 5649 5651 5653 5654 5656 5658 5660 5661 5663 5665 5667 5668 5670 5672 5673 5674 5676 5677 5678 5679 5680 5681 5683 5684 5684 5685 5686 5687 5688 5689 5689 5690 5691 5692 5692 5693 5693 5694 5694 5695 5695 5696 5696 5697 5697
5610 5611 5613 5615 5616 5619 5622 5626 5628 5629 5629 5630 5632 5633 5635 5637 5639 5640 5641 5642 5644 5645 5646 5648 5649 5651 5653 5654 5656 5658 5660 5661 5663 5665 5667 5668 5670 5672 5673 5674 5675 5677 5678 5679 5680 5681 5682 5683 5684 5685 5686 5686 5687 5688 5689 5689 5690 5690 5691 5691 5692 5693 5693 5694 5694 5695 5695 5695 5695
5612 5614 5615 5617 5619 5622 5625 5627 5629 5630 5631 5632 5633 5634 5636 5638 5639 5640 5641 5643 5644 5645 5646 5648 5649 5651 5653 5654 5656 5658 5660 5662 5663 5665 5667 5669 5672 5672 5673 5674 5675 5676 5678 5679 5680 5680 5681 5682 5683 5684 5685 5685 5686 5687 5687 5688 5689 5689 5690 5690 5691 5692 5692 5693 5693 5694 5694 5694 5694
5615 5616 5618 5620 5622 5624 5626 5629 5630 5631 5632 5633 5634 5635 5637 5638 5639 5640 5642 5643 5644 5645 5647 5648 5649 5651 5653 5654 5656 5658 5659 5661 5663 5665 5667 5669 5671 5672 5673 5674 5675 5676 5677 5678 5679 5680 5681 5682 5683 5683 5684 5684 5685 5686 5686 5687 5688 5688 5689 5690 5690 5691 5691 5692 5692 5692 5692 5693 5693
5617 5619 5621 5622 5624 5626 5628 5629 5631 5632 5633 5634 5636 5637 5637 5638 5639 5641 5642 5643 5644 5645 5647 5649 5650 5651 5653 5654 5656 5658 5660 5662 5664 5665 5667 5669 5670 5671 5673 5674 5675 5676 5676 5677 5678 5679 5680 5681 5681 5682 5683 5683 5684 5685 5685 5686 5687 5688 5688 5689 5689 5690 5690 5690 5691 5691 5691 5691 5691
5620 5622 5623 5624 5626 5627 5629 5629 5630 5632 5633 5634 5636 5637 5637 5638 5639 5640 5642 5643 5644 5646 5648 5649 5650 5652 5654 5655 5657 5659 5660 5662 5664 5665 5667 5669 5670 5671 5672 5673 5674 5675 5676 5677 5678 5678 5679 5680 5680 5681 5682 5683 5683 5684 5685 5685 5686 5687 5687 5688 5688 5689 5689 5689 5689 5689 5689 5689 5689
5623 5624 5624 5626 5628 5628 5628 5628 5629 5631 5633 5634 5635 5636 5637 5638 5639 5640 5642 5643 5645 5646 5648 5649 5651 5653 5654 5656 5658 5659 5661 5663 5664 5666 5667 5668 5669 5671 5672 5673 5674 5674 5675 5676 5677 5677 5678 5679 5680 5680 5681 5682 5683 5684 5684 5684 5685 5686 5686 5687 5687 5687 5688 5688 5688 5688 5688 5688 5688
5624 5625 5626 5627 5628 5628 5628 5629 5630 5631 5633 5634 5635 5636 5637 5638 5639 5640 5642 5644 5645 5647 5648 5650 5652 5653 5655 5657 5658 5660 5661 5663 5664 5665 5667 5668 5669 5670 5671 5672 5673 5674 5674 5675 5676 5677 5678 5678 5679 5680 5681 5681 5682 5682 5683 5684 5684 5684 5685 5685 5686 5686 5686 5686 5686 5686 5686 5686 5686
5624 5625 5626 5627 5628 5629 5629 5630 5631 5632 5633 5634 5635 5636 5637 5639 5640 5641 5642 5644 5645 5647 5649 5650 5652 5654 5656 5658 5659 5660 5662 5663 5664 5665 5666 5667 5669 5669 5670 5671 5672 5673 5673 5674 5675 5676 5677 5678 5678 5679 5679 5680 5681 5681 5682 5683 5683 5684 5684 5684 5684 5684 5684 5684 5684 5684 5684 5684 5684
5625 5626 5627 5628 5628 5629 5630 5631 5632 5633 5634 5635 5636 5637 5639 5640 5641 5642 5644 5645 5646 5648 5649 5651 5653 5654 5656 5658 5659 5660 5662 5663 5664 5665 5666 5667 5668 5669 5669 5670 5671 5672 5673 5674 5674 5675 5676 5677 5677 5678 5679 5679 5680 5680 5681 5681 5682 5682 5683 5683 5683 5683 5683 5683 5683 5683 5683 5683 5683
5627 5627 5628 5629 5629 5630 5631 5632 5633 5634 5635 5636 5637 5639 5640 5641 5642 5644 5645 5647 5648 5649 5651 5652 5654 5655 5657 5658 5659 5660 5662 5663 5664 5664 5665 5666 5667 5668 5669 5670 5671 5671 5672 5673 5674 5674 5675 5676 5676 5677 5678 5678 5679 5679 5680 5680 5681 5681 5681 5681 5681 5681 5681 5681 5681 5681 5681 5681 5681
5629 5630 5630 5630 5630 5631 5632 5633 5634 5635 5636 5637 5638 5639 5641 5642 5643 5644 5646 5647 5649 5650 5652 5653 5654 5656 5657 5658 5659 5660 5661 5662 5663 5664 5665 5666 5667 5668 5669 5670 5670 5671 5672 5672 5673 5674 5674 5675 5675 5676 5677 5677 5678 5678 5679 5679 5679 5680 5680 5680 5680 5680 5680 5680 5680 5679 5679 5679 5679
5630 5631 5632 5632 5632 5632 5633 5634 5635 5636 5637 5638 5639 5640 5641 5643 5644 5645 5646 5648 5649 5650 5652 5653 5654 5656 5657 5658 5659 5660 5661 5662 5663 5664 5665 5666 5667 5667 5668 5669 5670 5670 5671 5671 5672 5673 5673 5674 5674 5675 5676 5676 5677 5677 5677 5678 5678 5678 5678 5679 5679 5679 5679 5678 5678 5678 5678 5678 5678
5629 5630 5631 5632 5632 5633 5634 5635 5636 5637 5638 5639 5640 5641 5642 5643 5644 5646 5647 5648 5649 5651 5652 5653 5654 5656 5657 5658 5659 5660 5661 5662 5663 5664 5664 5665 5666 5667 5668 5669 5669 5669 5670 5671 5671 5672 5672 5673 5674 5674 5674 5675 5675 5676 5676 5676 5677 5677 5677 5677 5677 5677 5677 5677 5677 5677 5676 5676 5676